Flag for Mauritania Weather past 2 weeks in Nouadhibou, Mauritania

Now
72 °F

Sandstorm.


Feels Like: 72 °F
Forecast: 69 / 81 °F
Wind: 18 mph from North

Location: Nouadhibou Airport

Current Time: Oct 1, 2014 at 1:36:39 AM

Latest Report: Oct 1, 2014 at 1:00 AM


Visibility: 4 mi

Pressure: 29.98 "Hg

Humidity: 78%

Dew point: 64 °F

Location of NouadhibouLocation

Historic Weather in Nouadhibou — Graph

°F

Nouadhibou temperature yesterday

Maximum temperature yesterday: 88 °F (at 1:00 PM)
Minimum temperature yesterday: 70 °F (at 6:00 AM)
Average temperature yesterday: 76 °F

Past Weeks' High & Low Weather Summary

 TemperatureHumidityPressure
High104 °F (Sep 27, 2:00 PM)94% (Sep 16, 4:00 AM)30.04 "Hg (Sep 16, 4:00 AM)
Low70 °F (Sep 16, 4:00 AM)25% (Sep 29, 1:00 PM)29.80 "Hg (Sep 16, 6:00 PM)
Average78 °F67%29.92 "Hg
* Reported Midnight between Sep 15 and Sep 16 — Midnight between Sep 30 and Oct 1, Nouadhibou, Weather by CustomWeather, © 2014

Note: Actual official high and low records may vary slightly from our data, if they occured in-between our weather recording intervals... More about our weather records

Advertising

Nouadhibou weather history for previous 24 hours

 ConditionsComfort  
Time TempWeatherWind HumidityBarometerVisibility
12:00 AM
Oct 1
72 °FSandstorm.20 mph78%29.98 "Hg4 mi
11:00 PM
Sep 30
72 °FSandstorm.21 mph78%30.01 "Hg4 mi
10:00 PM73 °FSandstorm.21 mph69%30.01 "Hg4 mi
9:00 PM73 °FSandstorm.17 mph65%29.98 "Hg4 mi
8:00 PM72 °FSandstorm.18 mph73%29.98 "Hg2 mi
7:00 PM73 °FSandstorm.16 mph69%29.95 "Hg2 mi
6:00 PM77 °FSandstorm.20 mph61%29.95 "Hg2 mi
5:00 PM79 °FSandstorm.21 mph61%29.95 "Hg2 mi
4:51 PM79 °FSandstorm.21 mph61%29.95 "Hg2 mi
4:00 PM81 °FClear.20 mph58%29.95 "Hg5 mi
3:00 PM82 °FClear.15 mph55%29.98 "Hg5 mi
2:00 PM86 °FClear.14 mph46%29.98 "Hg5 mi
1:00 PM88 °FClear.23 mph29%30.01 "Hg5 mi
12:00 PM86 °FClear.23 mph35%30.01 "Hg5 mi
11:00 AM81 °FClear.23 mph48%30.04 "Hg5 mi
10:00 AM79 °FClear.28 mph48%30.04 "Hg5 mi
9:00 AM75 °FClear.25 mph57%30.04 "Hg5 mi
8:00 AM72 °FClear.23 mph61%30.01 "Hg5 mi
7:00 AM70 °FClear.24 mph64%30.01 "Hg5 mi
6:00 AM70 °FClear.21 mph69%29.98 "Hg5 mi
5:00 AM72 °FClear.23 mph65%29.98 "Hg5 mi
4:00 AM72 °FClear.24 mph69%29.95 "Hg5 mi
3:00 AM73 °FClear.23 mph65%29.98 "Hg5 mi
1:00 AM75 °FClear.20 mph65%30.01 "Hg5 mi
Weather by CustomWeather, © 2014

See weather overviewHow to use our weather pages